DW4915 Mazarete ES current weather conditions

sailwx.info

Wind from 254

Air temperature 27.8° C
Dewpoint 15.4° C

Last reported at 2015-Aug-04 12:46 UTC.
Time now 2015-Aug-04 13:53 UTC

Location: N 40°58' W 002°11'.
View on Google Maps.

See reports from other nearby stations

  
Tides and Currents Weather Stations Pressure Air Temp Water Temp Dewpoint Dewpoint Depression Visibility Wind Speed Wind Dir Waves Ship Positions
date/time (UTC)wind fromknots sea level pressurealtimeterstation pressurevisibilityair tempwater tempwave heightnotes
2015-Aug-04 12:46 254 27.8
2015-Aug-04 12:41 254 27.2
2015-Aug-04 12:31 254 27.2
2015-Aug-04 12:26 243 27.2
2015-Aug-04 12:21 256 26.7
2015-Aug-04 12:16 256 26.7
2015-Aug-04 12:11 275 26.7
2015-Aug-04 12:06 273 26.1
2015-Aug-04 12:01 238 26.1
2015-Aug-04 11:56 276 26.1
2015-Aug-04 11:51 233 26.7
2015-Aug-04 11:46 278 26.1
2015-Aug-04 11:36 271 25.6
2015-Aug-04 11:31 272 26.1
2015-Aug-04 11:26 271 26.1
2015-Aug-04 11:21 258 26.1
2015-Aug-04 11:11 248 26.1
2015-Aug-04 11:06 206 26.1
2015-Aug-04 11:01 156 26.1
2015-Aug-04 10:56 264 26.1
2015-Aug-04 10:51 264 26.1
2015-Aug-04 10:46 264 26.1
2015-Aug-04 10:41 261 26.1
2015-Aug-04 10:36 266 26.1
2015-Aug-04 10:31 106 25.6
2015-Aug-04 10:21 106 25.0
2015-Aug-04 10:16 106 25.0
2015-Aug-04 10:11 106 24.4
2015-Aug-04 10:06 106 24.4
2015-Aug-04 10:01 107 24.4
2015-Aug-04 09:56 106 24.4
2015-Aug-04 09:51 108 24.4
2015-Aug-04 09:46 106 24.4
2015-Aug-04 09:41 106 24.4
2015-Aug-04 09:36 106 24.4
2015-Aug-04 09:31 106 24.4
2015-Aug-04 09:26 107 23.9
2015-Aug-04 09:21 106 23.9
2015-Aug-04 09:16 106 23.9
2015-Aug-04 09:11 106 23.9
2015-Aug-04 09:06 106 23.9
2015-Aug-04 09:01 106 23.9
2015-Aug-04 08:56 107 23.9
2015-Aug-04 08:51 106 23.3
2015-Aug-04 08:46 106 23.3
2015-Aug-04 08:41 106 23.3
2015-Aug-04 08:36 106 23.3
2015-Aug-04 08:26 106 22.8
2015-Aug-04 08:21 106 22.2
2015-Aug-04 08:16 108 22.2
2015-Aug-04 08:06 104 22.2
2015-Aug-04 08:01 108 22.2
2015-Aug-04 07:51 106 21.7
2015-Aug-04 07:46 106 21.7
2015-Aug-04 07:41 107 21.7
2015-Aug-04 07:36 107 21.7
2015-Aug-04 07:31 106 21.7
2015-Aug-04 07:26 106 21.1
2015-Aug-04 07:21 106 20.6
2015-Aug-04 07:16 106 20.6
2015-Aug-04 07:11 105 20.0
2015-Aug-04 07:06 106 20.0
2015-Aug-04 07:01 106 19.4
2015-Aug-04 06:56 106 18.9
2015-Aug-04 06:51 108 18.9
2015-Aug-04 06:46 107 18.3
2015-Aug-04 06:41 106 18.3
2015-Aug-04 06:31 106 17.8
2015-Aug-04 06:26 106 17.2
2015-Aug-04 06:16 106 16.7
2015-Aug-04 06:11 106 16.7
2015-Aug-04 06:06 107 16.1
2015-Aug-04 05:56 106 15.6
2015-Aug-04 05:51 106 15.6
2015-Aug-04 05:46 106 15.6
2015-Aug-04 05:41 105 15.6
2015-Aug-04 05:36 106 15.0
2015-Aug-04 05:31 106 15.0
2015-Aug-04 05:26 106 15.0
2015-Aug-04 05:16 106 15.0
2015-Aug-04 05:11 106 15.0
2015-Aug-04 05:06 108 15.0
2015-Aug-04 04:56 106 15.0
2015-Aug-04 04:51 106 15.0
2015-Aug-04 04:46 106 15.0
2015-Aug-04 04:41 106 15.0
2015-Aug-04 04:36 107 15.0
2015-Aug-04 04:31 106 15.0
2015-Aug-04 04:26 106 15.6
2015-Aug-04 04:21 106 15.6
2015-Aug-04 04:16 105 15.6
2015-Aug-04 04:11 106 15.6
2015-Aug-04 04:06 106 15.6
2015-Aug-04 04:01 106 15.6
2015-Aug-04 03:56 106 15.6
2015-Aug-04 03:51 106 15.6
2015-Aug-04 03:41 104 15.6
2015-Aug-04 03:36 106 16.1
2015-Aug-04 03:31 106 16.1
2015-Aug-04 03:21 106 16.1
2015-Aug-04 03:16 106 16.1
2015-Aug-04 03:11 107 16.7
2015-Aug-04 03:01 106 16.7
2015-Aug-04 02:56 106 16.7
2015-Aug-04 02:51 106 17.2
2015-Aug-04 02:46 106 17.2
2015-Aug-04 02:41 108 17.2
2015-Aug-04 02:36 106 17.2
2015-Aug-04 02:31 106 17.2
2015-Aug-04 02:21 106 16.7
2015-Aug-04 02:16 106 16.7
2015-Aug-04 02:11 106 16.7
2015-Aug-04 02:06 106 16.7
2015-Aug-04 02:01 106 16.7
2015-Aug-04 01:56 106 16.7
2015-Aug-04 01:46 106 16.7
2015-Aug-04 01:41 107 16.7
2015-Aug-04 01:36 106 16.7
2015-Aug-04 01:26 106 16.7
2015-Aug-04 01:21 106 16.7
2015-Aug-04 01:16 108 16.7
2015-Aug-04 01:11 105 16.7
2015-Aug-04 01:06 107 16.7
2015-Aug-04 01:01 106 16.7
2015-Aug-04 00:56 106 16.7
2015-Aug-04 00:51 106 16.7
2015-Aug-04 00:41 107 16.7
2015-Aug-04 00:36 106 16.7
2015-Aug-04 00:31 107 16.7
2015-Aug-04 00:21 106 16.7
2015-Aug-04 00:16 106 16.7
2015-Aug-04 00:06 106 16.7
2015-Aug-04 00:01 106 16.7
2015-Aug-03 23:56 106 16.7
2015-Aug-03 23:51 106 16.7
2015-Aug-03 23:46 107 16.7
2015-Aug-03 23:41 106 16.7
2015-Aug-03 23:36 106 16.7
2015-Aug-03 23:31 106 16.7
2015-Aug-03 23:26 106 16.7
2015-Aug-03 23:21 106 16.7
2015-Aug-03 23:16 106 16.7
2015-Aug-03 23:11 106 16.7
2015-Aug-03 23:06 106 17.2
2015-Aug-03 23:01 106 17.2
2015-Aug-03 22:56 107 17.2
2015-Aug-03 22:46 106 17.8
2015-Aug-03 22:41 106 17.8
2015-Aug-03 22:31 104 17.8
2015-Aug-03 22:26 106 17.8
2015-Aug-03 22:21 106 17.8
2015-Aug-03 22:11 106 17.2
2015-Aug-03 22:06 106 17.2
2015-Aug-03 22:01 106 17.2
2015-Aug-03 21:56 107 17.2
2015-Aug-03 21:51 106 17.8
2015-Aug-03 21:41 106 17.2
2015-Aug-03 21:36 106 17.2
2015-Aug-03 21:31 106 17.2
2015-Aug-03 21:26 107 17.2
2015-Aug-03 21:21 106 17.2
2015-Aug-03 21:16 105 17.2
2015-Aug-03 21:11 106 17.8
2015-Aug-03 21:06 106 17.8
2015-Aug-03 21:01 106 17.8
2015-Aug-03 20:51 103 17.2
2015-Aug-03 20:46 077 17.2
2015-Aug-03 20:41 015 17.2
2015-Aug-03 20:36 348 17.8
2015-Aug-03 20:26 172 18.3
2015-Aug-03 20:21 131 18.3
2015-Aug-03 20:16 206 18.3
2015-Aug-03 20:11 159 17.8
2015-Aug-03 20:06 102 17.8
2015-Aug-03 20:01 156 17.8
2015-Aug-03 19:56 012 18.3
2015-Aug-03 19:46 344 18.9
2015-Aug-03 19:36 292 21.1
2015-Aug-03 19:31 292 23.3
2015-Aug-03 19:26 347 23.9
2015-Aug-03 19:16 059 25.0
2015-Aug-03 19:11 071 25.0
2015-Aug-03 19:06 060 25.6
2015-Aug-03 19:01 069 25.6
2015-Aug-03 18:56 070 25.6
2015-Aug-03 18:46 079 26.1
2015-Aug-03 18:41 053 26.7
2015-Aug-03 18:36 016 27.2
2015-Aug-03 18:26 061 28.9
2015-Aug-03 18:21 066 30.0
2015-Aug-03 18:16 216 30.6
2015-Aug-03 18:11 216 30.6
2015-Aug-03 18:06 229 30.6
2015-Aug-03 18:01 250 30.6
2015-Aug-03 17:56 275 30.6
2015-Aug-03 17:51 262 30.6
2015-Aug-03 17:46 253 31.1
2015-Aug-03 17:36 235 31.7
2015-Aug-03 17:26 221 32.2
2015-Aug-03 17:21 236 31.7
2015-Aug-03 17:16 270 31.7
2015-Aug-03 17:11 257 31.7
2015-Aug-03 17:06 211 31.7
2015-Aug-03 17:01 235 31.7
2015-Aug-03 16:51 246 32.2
2015-Aug-03 16:46 221 32.2
2015-Aug-03 16:41 216 32.2
2015-Aug-03 16:36 226 32.2
2015-Aug-03 16:31 216 32.2
2015-Aug-03 16:26 187 32.8
2015-Aug-03 16:21 206 32.8
2015-Aug-03 16:16 171 32.2
2015-Aug-03 16:11 170 32.2
2015-Aug-03 16:06 240 32.2
2015-Aug-03 16:01 155 32.2
2015-Aug-03 15:56 225 32.2
2015-Aug-03 15:51 158 32.2
2015-Aug-03 15:46 235 32.2
2015-Aug-03 15:41 211 32.8
2015-Aug-03 15:36 258 32.2
2015-Aug-03 15:31 280 32.2
2015-Aug-03 15:26 271 32.8
2015-Aug-03 15:21 225 32.8
2015-Aug-03 15:16 240 32.8
2015-Aug-03 15:06 269 33.3
2015-Aug-03 15:01 198 33.3
2015-Aug-03 14:56 202 32.8
2015-Aug-03 14:51 244 32.8
2015-Aug-03 14:46 169 32.8
2015-Aug-03 14:41 165 32.8
2015-Aug-03 14:36 248 32.8
2015-Aug-03 14:31 216 32.8
2015-Aug-03 14:21 271 32.8
2015-Aug-03 14:16 242 33.3
2015-Aug-03 14:11 244 32.8
2015-Aug-03 14:06 211 32.8
2015-Aug-03 13:56 267 32.8
2015-Aug-03 13:51 156 32.8
2015-Aug-03 13:46 258 32.2
2015-Aug-03 13:36 258 32.2
2015-Aug-03 13:31 236 32.8
2015-Aug-03 13:26 272 33.3
2015-Aug-03 13:16 243 32.8
2015-Aug-03 13:11 236 32.2
2015-Aug-03 13:01 241 32.2
2015-Aug-03 12:56 235 32.8
2015-Aug-03 12:51 249 32.8
2015-Aug-03 12:46 225 32.8
2015-Aug-03 12:41 236 33.3
2015-Aug-03 12:36 285 32.8
2015-Aug-03 12:31 263 32.8
2015-Aug-03 12:26 182 32.8
2015-Aug-03 12:16 204 32.8
2015-Aug-03 12:11 269 32.8
2015-Aug-03 11:36 186 32.2
2015-Aug-03 11:31 221 32.2
2015-Aug-03 11:26 250 32.2
2015-Aug-03 11:01 173 31.7
2015-Aug-03 10:56 197 31.1
2015-Aug-03 10:51 197 31.1
2015-Aug-03 10:46 243 31.1
2015-Aug-03 10:41 216 31.1
2015-Aug-03 10:31 233 31.1
2015-Aug-03 10:26 236 31.1
2015-Aug-03 10:16 258 30.0
2015-Aug-03 10:11 246 30.0
2015-Aug-03 10:06 227 30.0
2015-Aug-03 09:56 216 30.0
2015-Aug-03 09:51 235 29.4
2015-Aug-03 09:46 234 29.4
2015-Aug-03 09:41 237 28.9
2015-Aug-03 09:31 238 28.9
2015-Aug-03 09:26 231 28.9
2015-Aug-03 09:21 211 28.9
2015-Aug-03 09:16 188 28.3
2015-Aug-03 09:11 165 28.3
2015-Aug-03 09:06 168 27.8
2015-Aug-03 09:01 160 27.8
2015-Aug-03 08:56 166 27.2
2015-Aug-03 08:51 164 27.2
2015-Aug-03 08:46 166 26.7
2015-Aug-03 08:41 156 26.7
2015-Aug-03 08:36 165 26.1
2015-Aug-03 08:31 165 25.6
2015-Aug-03 08:26 165 25.6
2015-Aug-03 08:21 172 25.0
2015-Aug-03 08:16 180 24.4
2015-Aug-03 08:11 178 24.4
2015-Aug-03 08:06 181 23.9
2015-Aug-03 08:01 185 23.9
2015-Aug-03 07:56 186 23.3
2015-Aug-03 07:51 187 23.3
2015-Aug-03 07:41 225 22.8
2015-Aug-03 07:36 233 22.8
2015-Aug-03 07:31 233 22.2
2015-Aug-03 07:26 256 22.2
2015-Aug-03 07:21 256 21.7
2015-Aug-03 07:16 256 21.7
2015-Aug-03 07:11 256 21.1
2015-Aug-03 07:01 256 20.6
2015-Aug-03 06:56 256 19.4
2015-Aug-03 06:46 256 18.3
2015-Aug-03 06:41 256 17.2
2015-Aug-03 06:31 256 16.1
2015-Aug-03 06:26 256 15.6
2015-Aug-03 06:21 256 15.0
2015-Aug-03 06:11 256 14.4
2015-Aug-03 06:06 256 13.9
2015-Aug-03 06:01 257 13.9
2015-Aug-03 05:56 256 13.3
2015-Aug-03 05:51 256 13.3
2015-Aug-03 05:41 256 12.8
2015-Aug-03 05:36 256 12.8
2015-Aug-03 05:31 256 12.8
2015-Aug-03 05:21 256 12.8
2015-Aug-03 01:36 256 13.3
2015-Aug-03 01:31 256 13.3
2015-Aug-03 01:26 256 12.8
2015-Aug-03 01:21 256 12.8
2015-Aug-03 01:16 256 12.8
2015-Aug-03 01:11 256 12.8
2015-Aug-03 01:06 257 12.8
2015-Aug-03 01:01 256 12.8
2015-Aug-03 00:56 256 12.8
2015-Aug-03 00:46 257 13.3
2015-Aug-03 00:41 256 13.3
2015-Aug-03 00:36 256 13.3
2015-Aug-03 00:31 256 13.3
2015-Aug-03 00:26 256 13.3
2015-Aug-03 00:16 256 13.3
2015-Aug-03 00:11 256 13.3
2015-Aug-03 00:06 256 13.3
2015-Aug-02 23:56 257 13.3
2015-Aug-02 23:51 256 13.3
2015-Aug-02 23:46 256 13.3
2015-Aug-02 23:41 256 13.3
2015-Aug-02 23:36 256 13.3
2015-Aug-02 23:31 256 13.3
2015-Aug-02 23:21 256 13.3
2015-Aug-02 23:16 256 13.9
2015-Aug-02 23:11 256 13.9
2015-Aug-02 23:06 256 13.9
2015-Aug-02 23:01 256 13.9
2015-Aug-02 22:51 256 13.9
2015-Aug-02 22:46 257 13.9
2015-Aug-02 22:41 256 13.9
2015-Aug-02 22:31 257 13.9
2015-Aug-02 22:26 256 13.9
2015-Aug-02 22:21 256 14.4
2015-Aug-02 22:11 257 14.4
2015-Aug-02 22:06 256 14.4
2015-Aug-02 22:01 256 14.4
2015-Aug-02 21:56 256 14.4
2015-Aug-02 21:51 257 14.4
2015-Aug-02 21:46 256 14.4
2015-Aug-02 21:41 257 15.0
2015-Aug-02 21:31 256 15.0
2015-Aug-02 21:26 256 15.0
2015-Aug-02 21:21 256 15.0
2015-Aug-02 21:11 255 15.6
2015-Aug-02 21:06 256 15.6
2015-Aug-02 21:01 256 16.1
2015-Aug-02 20:51 256 16.1
2015-Aug-02 20:46 256 16.7
2015-Aug-02 20:41 256 16.7
2015-Aug-02 20:31 256 17.2
2015-Aug-02 20:26 256 17.8
2015-Aug-02 20:21 256 18.3
2015-Aug-02 20:16 256 18.3
2015-Aug-02 20:11 257 18.9
2015-Aug-02 20:06 256 19.4
2015-Aug-02 20:01 256 20.0
2015-Aug-02 19:56 256 20.6
2015-Aug-02 19:46 256 21.7
2015-Aug-02 19:41 256 22.8
2015-Aug-02 19:36 256 23.9
2015-Aug-02 19:31 256 24.4
2015-Aug-02 19:21 256 26.1
2015-Aug-02 19:16 256 26.1
2015-Aug-02 19:11 256 26.1
2015-Aug-02 19:06 256 26.7
2015-Aug-02 19:01 256 26.7
2015-Aug-02 18:56 256 27.2
2015-Aug-02 18:51 256 27.2
2015-Aug-02 18:41 255 27.8
2015-Aug-02 18:36 253 27.8
2015-Aug-02 18:31 258 27.8
2015-Aug-02 18:26 261 28.3
2015-Aug-02 18:21 261 28.3
2015-Aug-02 18:16 274 28.3
2015-Aug-02 18:11 253 28.9
2015-Aug-02 18:01 257 28.9
2015-Aug-02 17:56 293 29.4
2015-Aug-02 17:51 272 29.4
2015-Aug-02 17:46 261 29.4
2015-Aug-02 17:36 258 29.4
2015-Aug-02 17:31 257 30.0
2015-Aug-02 17:21 250 30.0
2015-Aug-02 17:16 250 30.0
2015-Aug-02 17:11 241 30.0
2015-Aug-02 17:01 196 30.0
2015-Aug-02 16:56 227 30.0
2015-Aug-02 16:51 211 30.0
2015-Aug-02 16:46 216 30.0
2015-Aug-02 16:41 234 30.0
2015-Aug-02 16:36 175 30.0
2015-Aug-02 16:31 113 30.0
2015-Aug-02 16:26 259 30.0
2015-Aug-02 16:16 265 30.0
2015-Aug-02 16:11 253 29.4
2015-Aug-02 16:06 289 29.4
2015-Aug-02 16:01 250 29.4
2015-Aug-02 15:56 250 29.4
2015-Aug-02 15:51 216 29.4
2015-Aug-02 15:41 290 29.4
2015-Aug-02 15:36 248 29.4
2015-Aug-02 15:31 229 29.4
2015-Aug-02 15:21 265 29.4
2015-Aug-02 15:16 277 29.4
2015-Aug-02 15:11 225 29.4
2015-Aug-02 15:06 216 29.4
2015-Aug-02 15:01 257 29.4
2015-Aug-02 14:56 221 29.4
2015-Aug-02 14:46 248 28.9
2015-Aug-02 14:41 276 28.9
2015-Aug-02 14:36 283 29.4
2015-Aug-02 14:26 257 28.9
2015-Aug-02 14:21 292 28.9
2015-Aug-02 14:16 274 28.9
2015-Aug-02 14:11 268 28.9
2015-Aug-02 14:06 281 28.9
2015-Aug-02 14:01 289 28.9
2015-Aug-02 13:51 233 28.3
2015-Aug-02 13:46 244 28.3
2015-Aug-02 13:41 250 28.3
2015-Aug-02 13:31 273 28.3
2015-Aug-02 13:26 243 27.8
2015-Aug-02 13:21 314 27.8
2015-Aug-02 13:16 270 27.2
2015-Aug-02 13:11 221 27.8
2015-Aug-02 13:06 248 27.8